Weather in Toyohashi

Japan     34°45′37″N   137°23′31″E
temp.,
°C
wind,
m/s
gust,
m/s
humid.,
%
clouds,
%
prec.,
mm/h
press.,
hPa
HPBL,
m
18 october, mon
mon1800:00+15w3364100 2.3 1018541
03:00+15sw0161100 2.7 1019552
06:00+15se2269100 0.1 1020769
09:00+15ne1166100 0.1 1022800
12:00+16wsw116490 0.0 1022854
15:00+17e1257100 0.0 10211022
18:00+17e4450100 0.0 1023916
21:00+16ene5856100 0.0 1022861
19 october, tue
tue1900:00+16ene5858100 0.0 1022757
03:00+15ne3656100 0.0 1020423
06:00+13nne3687100 4.6 1020274
09:00+14nnw2283100 7.1 1019319
12:00+14nne2383100 1.9 1016282
15:00+15nw2279100 1.9 1014353
18:00+15wnw1283100 0.0 1013177
21:00+15nw118489 0.0 101358
20 october, wed
wed2000:00+15wnw388260 0.0 1011433
03:00+14wnw411822 0.0 1010793
06:00+14nw7137311 0.0 10101221
09:00+16wnw815550 0.0 10111664
12:00+18wnw1015395 0.0 10102042
15:00+18wnw916460 0.0 10101719
18:00+15nw814574 0.0 10121319
21:00+14nw91462100 0.0 1013933
21 october, thu
thu2100:00+13nw8146240 0.0 10131020
03:00+12nw8145511 0.0 1014838
06:00+10nw5105894 0.0 1015383
09:00+14nnw3444100 0.0 1017384
12:00+15nnw3443100 0.0 1017379
15:00+15nnw2345100 0.0 1017279
18:00+15n1149100 0.0 101857
21:00+15nnw2352100 0.0 1019171
22 october, fri
fri2200:00+13nnw125696 0.0 1018103
03:00+12nnw126099 0.0 101885
06:00+12nw226181 0.0 1020131
09:00+15ne1151100 0.0 1020377
12:00+18sse114788 0.0 1019955
15:00+18s2144100 0.0 10191124
18:00+17se1152100 0.0 1020208
21:00+16nne2360100 0.0 1021134